| time (UTC) | temp F | wind direction | speed MPH | gust MPH | rain 1hr in | rain 24hr in | rain mn in | humidity % | barometer mb |
| 20260504202004 | 77 | 236 | 11.0 | 18.0 | 0.00 | 0.17 | 0.17 | 32 | 1008.2 |
| 20260504201502 | 76 | 195 | 8.0 | 20.0 | 0.00 | 0.17 | 0.17 | 33 | 1008.1 |
| 20260504201002 | 76 | 227 | 0.0 | 0.0 | 0.00 | 0.17 | 0.17 | 35 | 1008.2 |
| 20260504200502 | 76 | 225 | 0.0 | 0.0 | 0.00 | 0.17 | 0.17 | 34 | 1008.4 |
| 20260504200004 | 77 | 186 | 0.0 | 0.0 | 0.00 | 0.17 | 0.17 | 35 | 1008.3 |
| 20260504195600 | 77 | 251 | 0.0 | 0.0 | 0.00 | 0.17 | 0.17 | 34 | 1008.4 |
| 20260504195059 | 77 | 238 | 0.0 | 0.0 | 0.00 | 0.17 | 0.17 | 35 | 1008.6 |
| 20260504194659 | 76 | 170 | 0.0 | 0.0 | 0.00 | 0.17 | 0.17 | 35 | 1008.6 |
| 20260504194057 | 75 | 227 | 0.0 | 0.0 | 0.00 | 0.17 | 0.17 | 36 | 1008.8 |
| 20260504193557 | 76 | 244 | 0.0 | 0.0 | 0.00 | 0.17 | 0.17 | 35 | 1008.9 |
| 20260504193057 | 76 | 236 | 0.0 | 0.0 | 0.00 | 0.17 | 0.17 | 35 | 1009.0 |
| 20260504192555 | 76 | 234 | 0.0 | 0.0 | 0.00 | 0.17 | 0.17 | 36 | 1009.1 |
| 20260504192055 | 76 | 245 | 0.0 | 0.0 | 0.00 | 0.17 | 0.17 | 37 | 1009.1 |
| 20260504191615 | 76 | 211 | 0.0 | 0.0 | 0.00 | 0.17 | 0.17 | 34 | 1009.3 |
| 20260504191052 | 76 | 249 | 0.0 | 0.0 | 0.00 | 0.17 | 0.17 | 36 | 1009.4 |
| 20260504190552 | 75 | 221 | 0.0 | 0.0 | 0.00 | 0.17 | 0.17 | 35 | 1009.4 |
| 20260504190051 | 75 | 246 | 0.0 | 0.0 | 0.00 | 0.17 | 0.17 | 35 | 1009.7 |
| 20260504185551 | 75 | 211 | 0.0 | 0.0 | 0.00 | 0.17 | 0.17 | 36 | 1009.6 |
| 20260504185050 | 75 | 226 | 0.0 | 0.0 | 0.00 | 0.17 | 0.17 | 35 | 1009.8 |
| 20260504184600 | 75 | 244 | 0.0 | 0.0 | 0.00 | 0.17 | 0.17 | 35 | 1009.8 |
| 20260504184052 | 75 | 250 | 0.0 | 0.0 | 0.00 | 0.17 | 0.17 | 37 | 1009.8 |
| 20260504183551 | 74 | 198 | 0.0 | 0.0 | 0.00 | 0.17 | 0.17 | 38 | 1009.8 |
| 20260504183049 | 74 | 207 | 0.0 | 6.0 | 0.00 | 0.17 | 0.17 | 36 | 1009.8 |
| 20260504182553 | 74 | 242 | 1.0 | 6.0 | 0.00 | 0.17 | 0.17 | 36 | 1009.7 |
| 20260504182048 | 74 | 208 | 0.0 | 0.0 | 0.00 | 0.17 | 0.17 | 35 | 1009.9 |
| 20260504181547 | 75 | 247 | 0.0 | 0.0 | 0.00 | 0.17 | 0.17 | 38 | 1009.8 |
| 20260504181046 | 74 | 219 | 0.0 | 0.0 | 0.00 | 0.17 | 0.17 | 37 | 1009.8 |
| 20260504180547 | 74 | 225 | 0.0 | 0.0 | 0.00 | 0.17 | 0.17 | 38 | 1009.9 |
| 20260504180045 | 74 | 225 | 0.0 | 0.0 | 0.00 | 0.17 | 0.17 | 38 | 1009.9 |
| 20260504175546 | 74 | 234 | 0.0 | 4.0 | 0.00 | 0.17 | 0.17 | 37 | 1009.9 |
| 20260504175044 | 74 | 204 | 0.0 | 4.0 | 0.00 | 0.17 | 0.17 | 38 | 1010.0 |
| 20260504174542 | 74 | 236 | 0.0 | 0.0 | 0.00 | 0.17 | 0.17 | 40 | 1009.9 |
| 20260504174042 | 73 | 204 | 0.0 | 0.0 | 0.00 | 0.17 | 0.17 | 36 | 1009.9 |
| 20260504173540 | 73 | 210 | 0.0 | 0.0 | 0.00 | 0.17 | 0.17 | 38 | 1010.0 |
| 20260504173039 | 72 | 192 | 0.0 | 0.0 | 0.00 | 0.17 | 0.17 | 41 | 1010.0 |
| 20260504172539 | 72 | 233 | 0.0 | 0.0 | 0.00 | 0.17 | 0.17 | 39 | 1010.1 |
| 20260504172042 | 72 | 202 | 0.0 | 0.0 | 0.00 | 0.17 | 0.17 | 40 | 1010.1 |
| 20260504171540 | 72 | 240 | 0.0 | 0.0 | 0.00 | 0.17 | 0.17 | 39 | 1010.2 |
| 20260504171037 | 71 | 198 | 0.0 | 15.0 | 0.00 | 0.17 | 0.17 | 41 | 1010.2 |
| 20260504170537 | 71 | 202 | 9.0 | 16.0 | 0.00 | 0.17 | 0.17 | 41 | 1010.2 |
| 20260504151018 | 66 | 211 | 0.0 | 0.0 | 0.00 | 0.16 | 0.16 | 46 | 1011.0 |
| 20260504150521 | 66 | 209 | 0.0 | 0.0 | 0.00 | 0.16 | 0.16 | 46 | 1011.0 |
| 20260504141008 | 61 | 188 | 5.0 | 10.0 | 0.00 | 0.16 | 0.16 | 50 | 1011.8 |
| 20260504140504 | 61 | 181 | 6.0 | 10.0 | 0.00 | 0.16 | 0.16 | 50 | 1011.8 |
| 20260504130551 | 57 | 174 | 0.0 | 0.0 | 0.00 | 0.16 | 0.16 | 54 | 1012.1 |
| 20260504110544 | 54 | 238 | 0.0 | 0.0 | 0.00 | 0.16 | 0.16 | 53 | 1012.9 |
| 20260504100541 | 54 | 193 | 0.0 | 0.0 | 0.00 | 0.16 | 0.16 | 51 | 1013.0 |
| 20260504081538 | 53 | 192 | 0.0 | 0.0 | 0.00 | 0.16 | 0.16 | 53 | 1011.6 |
| 20260504081036 | 53 | 190 | 0.0 | 0.0 | 0.00 | 0.16 | 0.16 | 54 | 1011.6 |
| 20260504080536 | 53 | 200 | 0.0 | 0.0 | 0.00 | 0.16 | 0.16 | 55 | 1011.7 |
| 20260504050506 | 55 | 175 | 0.0 | 0.0 | 0.00 | 0.00 | 0.00 | 48 | 1013.9 |
| 20260504050004 | 55 | 165 | 0.0 | 0.0 | 0.00 | 0.00 | 0.00 | 48 | 1013.9 |
| 20260504045502 | 55 | 164 | 0.0 | 0.0 | 0.00 | 0.00 | 0.00 | 48 | 1013.9 |
| 20260504045001 | 55 | 154 | 0.0 | 0.0 | 0.00 | 0.00 | 0.00 | 48 | 1014.0 |
| 20260504044501 | 55 | 161 | 0.0 | 0.0 | 0.00 | 0.00 | 0.00 | 47 | 1014.2 |
| 20260504044002 | 55 | 158 | 0.0 | 0.0 | 0.00 | 0.00 | 0.00 | 47 | 1014.4 |
| 20260504043501 | 55 | 159 | 0.0 | 0.0 | 0.00 | 0.00 | 0.00 | 47 | 1014.3 |
| 20260504043110 | 55 | 159 | 0.0 | 0.0 | 0.00 | 0.00 | 0.00 | 47 | 1014.6 |
| 20260504042559 | 55 | 160 | 0.0 | 0.0 | 0.00 | 0.00 | 0.00 | 47 | 1014.3 |
| 20260504042057 | 54 | 149 | 0.0 | 0.0 | 0.00 | 0.00 | 0.00 | 47 | 1014.1 |
| 20260504041600 | 54 | 143 | 0.0 | 0.0 | 0.00 | 0.00 | 0.00 | 47 | 1013.9 |
| 20260504041057 | 54 | 164 | 0.0 | 0.0 | 0.00 | 0.00 | 0.00 | 48 | 1013.8 |
| 20260504040553 | 54 | 166 | 0.0 | 0.0 | 0.00 | 0.00 | 0.00 | 48 | 1013.8 |
| 20260504040052 | 54 | 155 | 0.0 | 0.0 | 0.00 | 0.00 | 0.00 | 48 | 1013.8 |
| 20260504035551 | 54 | 160 | 0.0 | 0.0 | 0.00 | 0.00 | 0.00 | 48 | 1013.7 |
| 20260504035055 | 54 | 177 | 0.0 | 0.0 | 0.00 | 0.00 | 0.00 | 48 | 1013.9 |
| 20260504034556 | 54 | 171 | 0.0 | 0.0 | 0.00 | 0.00 | 0.00 | 47 | 1014.0 |
| 20260504034052 | 54 | 166 | 0.0 | 0.0 | 0.00 | 0.00 | 0.00 | 47 | 1014.2 |
| 20260504033551 | 54 | 170 | 0.0 | 5.0 | 0.00 | 0.00 | 0.00 | 47 | 1014.3 |
| 20260504033057 | 54 | 171 | 0.0 | 0.0 | 0.00 | 0.00 | 0.00 | 47 | 1014.3 |
| 20260504032551 | 54 | 165 | 0.0 | 0.0 | 0.00 | 0.00 | 0.00 | 48 | 1014.4 |
| 20260504032050 | 54 | 163 | 0.0 | 0.0 | 0.00 | 0.00 | 0.00 | 49 | 1014.4 |
| 20260504031602 | 53 | 165 | 0.0 | 0.0 | 0.00 | 0.00 | 0.00 | 49 | 1014.5 |
| 20260504031050 | 53 | 164 | 0.0 | 0.0 | 0.00 | 0.00 | 0.00 | 49 | 1014.6 |
| 20260504030549 | 53 | 163 | 0.0 | 0.0 | 0.00 | 0.00 | 0.00 | 49 | 1014.7 |
| 20260504030110 | 53 | 166 | 0.0 | 0.0 | 0.00 | 0.00 | 0.00 | 50 | 1014.6 |
| 20260504025549 | 53 | 175 | 0.0 | 0.0 | 0.00 | 0.00 | 0.00 | 50 | 1014.7 |
| 20260504025050 | 52 | 177 | 0.0 | 0.0 | 0.00 | 0.00 | 0.00 | 51 | 1014.7 |
| 20260504024552 | 52 | 194 | 0.0 | 0.0 | 0.00 | 0.00 | 0.00 | 52 | 1014.7 |
| 20260504024048 | 51 | 181 | 0.0 | 0.0 | 0.00 | 0.00 | 0.00 | 53 | 1014.7 |
| 20260504023548 | 51 | 179 | 0.0 | 0.0 | 0.00 | 0.00 | 0.00 | 53 | 1014.8 |
| 20260504023048 | 51 | 160 | 0.0 | 0.0 | 0.00 | 0.00 | 0.00 | 53 | 1014.8 |
| 20260504022549 | 51 | 161 | 0.0 | 0.0 | 0.00 | 0.00 | 0.00 | 53 | 1014.8 |
| 20260504022048 | 52 | 158 | 0.0 | 0.0 | 0.00 | 0.00 | 0.00 | 52 | 1014.8 |
| 20260504021548 | 52 | 158 | 0.0 | 0.0 | 0.00 | 0.00 | 0.00 | 52 | 1014.8 |
| 20260504021050 | 52 | 158 | 0.0 | 0.0 | 0.00 | 0.00 | 0.00 | 51 | 1014.8 |
| 20260504020546 | 52 | 158 | 0.0 | 0.0 | 0.00 | 0.00 | 0.00 | 51 | 1014.8 |
| 20260504020047 | 53 | 158 | 0.0 | 0.0 | 0.00 | 0.00 | 0.00 | 50 | 1014.8 |
| 20260504015547 | 54 | 158 | 0.0 | 0.0 | 0.00 | 0.00 | 0.00 | 49 | 1014.8 |
| 20260504015047 | 55 | 158 | 0.0 | 0.0 | 0.00 | 0.00 | 0.00 | 47 | 1014.8 |
| 20260504014547 | 55 | 158 | 0.0 | 0.0 | 0.00 | 0.00 | 0.00 | 46 | 1014.8 |
| 20260504014046 | 55 | 158 | 0.0 | 0.0 | 0.00 | 0.00 | 0.00 | 45 | 1014.9 |
| 20260504013546 | 56 | 158 | 0.0 | 0.0 | 0.00 | 0.00 | 0.00 | 45 | 1014.8 |
| 20260504013049 | 56 | 158 | 0.0 | 0.0 | 0.00 | 0.00 | 0.00 | 44 | 1014.7 |
| 20260504012647 | 56 | 158 | 0.0 | 0.0 | 0.00 | 0.00 | 0.00 | 44 | 1014.7 |
| 20260504012047 | 57 | 158 | 0.0 | 0.0 | 0.00 | 0.00 | 0.00 | 43 | 1014.7 |
| 20260504011546 | 57 | 158 | 0.0 | 0.0 | 0.00 | 0.00 | 0.00 | 41 | 1014.5 |
| 20260504011044 | 57 | 158 | 0.0 | 0.0 | 0.00 | 0.00 | 0.00 | 41 | 1014.3 |
| 20260504010544 | 57 | 158 | 0.0 | 0.0 | 0.00 | 0.00 | 0.00 | 40 | 1014.1 |
| 20260504010045 | 58 | 159 | 0.0 | 0.0 | 0.00 | 0.00 | 0.00 | 39 | 1014.1 |
| 20260504005544 | 59 | 159 | 0.0 | 0.0 | 0.00 | 0.00 | 0.00 | 38 | 1014.0 |
| 20260504005047 | 59 | 191 | 0.0 | 0.0 | 0.00 | 0.00 | 0.00 | 37 | 1014.0 |
| 20260504004544 | 59 | 194 | 0.0 | 0.0 | 0.00 | 0.00 | 0.00 | 37 | 1014.0 |
| 20260504004044 | 59 | 199 | 0.0 | 0.0 | 0.00 | 0.00 | 0.00 | 37 | 1014.0 |
| 20260504003543 | 60 | 190 | 0.0 | 0.0 | 0.00 | 0.00 | 0.00 | 36 | 1014.0 |
| 20260504003046 | 60 | 216 | 0.0 | 0.0 | 0.00 | 0.00 | 0.00 | 36 | 1014.0 |
| 20260504002543 | 60 | 219 | 0.0 | 0.0 | 0.00 | 0.00 | 0.00 | 35 | 1013.9 |
| 20260504002043 | 60 | 215 | 0.0 | 0.0 | 0.00 | 0.00 | 0.00 | 35 | 1013.9 |
| 20260504001544 | 61 | 217 | 0.0 | 0.0 | 0.00 | 0.00 | 0.00 | 34 | 1013.9 |
| 20260504001043 | 61 | 192 | 0.0 | 0.0 | 0.00 | 0.00 | 0.00 | 34 | 1013.9 |
| 20260504000541 | 61 | 232 | 0.0 | 0.0 | 0.00 | 0.00 | 0.00 | 33 | 1013.9 |
| 20260504000101 | 61 | 211 | 0.0 | 0.0 | 0.00 | 0.00 | 0.00 | 33 | 1014.0 |
| 20260503235540 | 62 | 223 | 0.0 | 0.0 | 0.00 | 0.00 | 0.00 | 32 | 1014.1 |
| 20260503235040 | 62 | 218 | 0.0 | 0.0 | 0.00 | 0.00 | 0.00 | 31 | 1014.1 |
| 20260503234540 | 62 | 204 | 0.0 | 0.0 | 0.00 | 0.00 | 0.00 | 32 | 1014.0 |
| 20260503234040 | 62 | 231 | 0.0 | 0.0 | 0.00 | 0.00 | 0.00 | 32 | 1014.1 |
| 20260503233540 | 62 | 225 | 0.0 | 0.0 | 0.00 | 0.00 | 0.00 | 31 | 1014.1 |
| 20260503233041 | 63 | 237 | 0.0 | 0.0 | 0.00 | 0.00 | 0.00 | 31 | 1014.1 |
| 20260503232538 | 63 | 221 | 0.0 | 0.0 | 0.00 | 0.00 | 0.00 | 30 | 1014.2 |
| 20260503232038 | 63 | 250 | 0.0 | 0.0 | 0.00 | 0.00 | 0.00 | 31 | 1014.1 |
| 20260503231538 | 63 | 229 | 0.0 | 0.0 | 0.00 | 0.00 | 0.00 | 30 | 1014.1 |
| 20260503231037 | 63 | 213 | 0.0 | 0.0 | 0.00 | 0.00 | 0.00 | 30 | 1014.3 |
| 20260503230536 | 63 | 238 | 0.0 | 0.0 | 0.00 | 0.00 | 0.00 | 29 | 1014.3 |
| 20260503230035 | 63 | 198 | 0.0 | 0.0 | 0.00 | 0.00 | 0.00 | 29 | 1014.4 |
| 20260503225535 | 63 | 223 | 0.0 | 0.0 | 0.00 | 0.00 | 0.00 | 30 | 1014.4 |
| 20260503225033 | 63 | 243 | 0.0 | 0.0 | 0.00 | 0.00 | 0.00 | 29 | 1014.7 |
| 20260503224533 | 63 | 217 | 0.0 | 0.0 | 0.00 | 0.00 | 0.00 | 29 | 1014.8 |
| 20260503224034 | 63 | 211 | 0.0 | 0.0 | 0.00 | 0.00 | 0.00 | 29 | 1014.9 |
| 20260503223535 | 63 | 216 | 0.0 | 0.0 | 0.00 | 0.00 | 0.00 | 30 | 1015.0 |
| 20260503223032 | 63 | 215 | 0.0 | 0.0 | 0.00 | 0.00 | 0.00 | 29 | 1015.0 |
| 20260503222530 | 63 | 233 | 0.0 | 0.0 | 0.00 | 0.00 | 0.00 | 29 | 1015.1 |
| 20260503222030 | 63 | 232 | 0.0 | 0.0 | 0.00 | 0.00 | 0.00 | 30 | 1015.3 |
| 20260503221530 | 63 | 227 | 0.0 | 0.0 | 0.00 | 0.00 | 0.00 | 29 | 1015.2 |
| 20260503221029 | 63 | 217 | 0.0 | 0.0 | 0.00 | 0.00 | 0.00 | 30 | 1015.3 |
| 20260503220531 | 63 | 214 | 0.0 | 0.0 | 0.00 | 0.00 | 0.00 | 30 | 1015.2 |
| 20260503220028 | 63 | 227 | 0.0 | 0.0 | 0.00 | 0.00 | 0.00 | 30 | 1015.4 |
| 20260503215530 | 63 | 167 | 0.0 | 0.0 | 0.00 | 0.00 | 0.00 | 30 | 1015.6 |
| 20260503215027 | 63 | 246 | 0.0 | 0.0 | 0.00 | 0.00 | 0.00 | 31 | 1015.6 |
| 20260503214528 | 63 | 230 | 0.0 | 0.0 | 0.00 | 0.00 | 0.00 | 29 | 1015.7 |
| 20260503214025 | 63 | 267 | 0.0 | 0.0 | 0.00 | 0.00 | 0.00 | 30 | 1016.0 |
| 20260503213525 | 63 | 225 | 0.0 | 0.0 | 0.00 | 0.00 | 0.00 | 29 | 1016.3 |
| 20260503213025 | 63 | 229 | 0.0 | 0.0 | 0.00 | 0.00 | 0.00 | 28 | 1016.1 |
| 20260503212525 | 63 | 250 | 0.0 | 0.0 | 0.00 | 0.00 | 0.00 | 27 | 1016.2 |
| 20260503212024 | 64 | 243 | 0.0 | 0.0 | 0.00 | 0.00 | 0.00 | 29 | 1016.2 |
| 20260503211524 | 63 | 243 | 0.0 | 0.0 | 0.00 | 0.00 | 0.00 | 28 | 1016.0 |
| 20260503211024 | 63 | 193 | 0.0 | 0.0 | 0.00 | 0.00 | 0.00 | 27 | 1016.0 |
| 20260503210521 | 63 | 248 | 0.0 | 0.0 | 0.00 | 0.00 | 0.00 | 27 | 1016.2 |
| 20260503210021 | 64 | 239 | 0.0 | 0.0 | 0.00 | 0.00 | 0.00 | 28 | 1016.3 |
| 20260503205522 | 63 | 229 | 0.0 | 0.0 | 0.00 | 0.00 | 0.00 | 28 | 1016.4 |
| 20260503205019 | 63 | 233 | 0.0 | 0.0 | 0.00 | 0.00 | 0.00 | 28 | 1016.5 |
| 20260503204521 | 63 | 244 | 0.0 | 0.0 | 0.00 | 0.00 | 0.00 | 27 | 1016.7 |
| 20260503204017 | 63 | 211 | 0.0 | 0.0 | 0.00 | 0.00 | 0.00 | 26 | 1016.7 |
| 20260503203521 | 63 | 248 | 0.0 | 0.0 | 0.00 | 0.00 | 0.00 | 29 | 1016.7 |
| 20260503203019 | 63 | 228 | 0.0 | 0.0 | 0.00 | 0.00 | 0.00 | 26 | 1016.8 |
| 20260503202516 | 63 | 225 | 0.0 | 0.0 | 0.00 | 0.00 | 0.00 | 27 | 1016.8 |